Wautoma, WI

4:46 AM CDT on April 27, 2018 (GMT -0500)
Wautoma

Weather History for KY50 - November, 2013

Change the Weather History Date:

Friday, November 29, 2013

  Actual Average (KPCZ) Record (KPCZ)
Temperature  
Mean Temperature 16 °F -  
Max Temperature 29 °F 33 °F 53 °F (2006)
Min Temperature 3 °F 19 °F -8 °F (1976)
Degree Days  
Heating Degree Days 49    
Moisture  
Dew Point -    
Average Humidity    
Maximum Humidity    
Minimum Humidity    
Precipitation  
Precipitation 0.00 in - - ()
Sea Level Pressure  
Sea Level Pressure 30.51 in    
Wind  
Wind Speed 3 mph (SSE)    
Max Wind Speed 9 mph    
Max Gust Speed -    
Visibility 10 miles    
Events      
Averages and records for this station are not official NWS values.
T = Trace of Precipitation, MM = Missing Value Source: NWS Daily Summary

Daily Weather History Graph

Daily Weather History Graph

Search for Another Location

Airport or City:

Astronomy

Nov. 29, 2013 Rise Set
Actual Time 7:10 AM CST 4:20 PM CST
Civil Twilight 6:37 AM CST 4:53 PM CST
Nautical Twilight 6:01 AM CST 5:29 PM CST
Astronomical Twilight 5:27 AM CST 6:03 PM CST
Moon 3:08 AM CST (11/29) 2:11 PM CST (11/29)
Length of Visible Light 10h 15m
Length of Day
9h 10m
Waning Crescent, 14% of the Moon is Illuminated
Nov 29
Waning Crescent
Dec 2
New
Dec 9
First Quarter
Dec 17
Full
Dec 25
Last Quarter

Hourly Weather History & Observations

Time (CST) Temp. Windchill Dew Point Humidity Pressure Visibility Wind Dir Wind Speed Gust Speed Precip Events Conditions
12:32 AM 10.4 °F 4.0 °F - N/A% 30.50 in 10.0 mi WNW 3.5 mph - N/A   Scattered Clouds
12:41 AM 8.6 °F 2.0 °F - N/A% 30.50 in 10.0 mi West 3.5 mph - N/A   Mostly Cloudy
12:56 AM 9.1 °F - - N/A% 30.54 in 10.0 mi Calm Calm - N/A   Scattered Clouds
1:49 AM 8.6 °F - - N/A% 30.51 in 10.0 mi Calm Calm - N/A   Mostly Cloudy
1:56 AM 7.2 °F - - N/A% 30.56 in 10.0 mi Calm Calm - N/A   Mostly Cloudy
2:13 AM 6.8 °F - - N/A% 30.52 in 10.0 mi Calm Calm - N/A   Scattered Clouds
2:56 AM 6.1 °F - - N/A% 30.56 in 10.0 mi Calm Calm - N/A   Clear
3:09 AM 6.8 °F - - N/A% 30.52 in 10.0 mi Calm Calm - N/A   Scattered Clouds
3:17 AM 6.8 °F - - N/A% 30.52 in 10.0 mi Calm Calm - N/A   Mostly Cloudy
3:45 AM 6.8 °F - - N/A% 30.52 in 10.0 mi Calm Calm - N/A   Scattered Clouds
3:56 AM 5.0 °F - - N/A% 30.57 in 10.0 mi Calm Calm - N/A   Clear
4:30 AM 6.8 °F - - N/A% 30.53 in 10.0 mi Calm Calm - N/A   Scattered Clouds
4:38 AM 6.8 °F - - N/A% 30.54 in 10.0 mi Calm Calm - N/A   Mostly Cloudy
4:56 AM 5.0 °F - - N/A% 30.59 in 10.0 mi Calm Calm - N/A   Scattered Clouds
5:56 AM 4.1 °F - - N/A% 30.61 in 10.0 mi Calm Calm - N/A   Mostly Cloudy
6:14 AM 3.2 °F - - N/A% 30.57 in 10.0 mi Calm Calm - N/A   Scattered Clouds
6:56 AM 4.1 °F - - N/A% 30.63 in 10.0 mi Calm Calm - N/A   Mostly Cloudy
7:24 AM 3.2 °F - - N/A% 30.59 in 10.0 mi Calm Calm - N/A   Scattered Clouds
7:56 AM 7.2 °F - - N/A% 30.64 in 10.0 mi Calm Calm - N/A   Clear
8:16 AM 8.6 °F - - N/A% 30.60 in 10.0 mi Calm Calm - N/A   Scattered Clouds
8:25 AM 10.4 °F - - N/A% 30.59 in 10.0 mi Calm Calm - N/A   Mostly Cloudy
8:49 AM 12.2 °F - - N/A% 30.59 in 10.0 mi Calm Calm - N/A   Scattered Clouds
8:56 AM 12.0 °F - - N/A% 30.64 in 10.0 mi Calm Calm - N/A   Partly Cloudy
9:56 AM 17.1 °F - - N/A% 30.64 in 10.0 mi Calm Calm - N/A   Clear
10:24 AM 19.4 °F 12.8 °F - N/A% 30.59 in 10.0 mi South 4.6 mph - N/A   Scattered Clouds
10:32 AM 19.4 °F 14.3 °F - N/A% 30.59 in 10.0 mi South 3.5 mph - N/A   Mostly Cloudy
10:56 AM 22.1 °F 17.4 °F - N/A% 30.62 in 10.0 mi South 3.5 mph - N/A   Scattered Clouds
11:56 AM 25.2 °F 19.5 °F - N/A% 30.60 in 10.0 mi South 4.6 mph - N/A   Scattered Clouds
12:56 PM 29.1 °F 20.6 °F - N/A% 30.57 in 10.0 mi South 9.2 mph - N/A   Clear
1:41 PM 26.6 °F 18.2 °F - N/A% 30.51 in 10.0 mi South 8.1 mph - N/A   Mostly Cloudy
1:56 PM 28.0 °F 20.8 °F - N/A% 30.54 in 10.0 mi South 6.9 mph - N/A   Mostly Cloudy
2:16 PM 28.4 °F 22.2 °F - N/A% 30.49 in 10.0 mi SSE 5.8 mph - N/A   Scattered Clouds
2:56 PM 29.1 °F 21.3 °F - N/A% 30.52 in 10.0 mi South 8.1 mph - N/A   Mostly Cloudy
3:11 PM 28.4 °F 20.4 °F - N/A% 30.47 in 10.0 mi SSE 8.1 mph - N/A   Scattered Clouds
3:56 PM 28.0 °F 20.0 °F - N/A% 30.51 in 10.0 mi SE 8.1 mph - N/A   Clear
4:19 PM 26.6 °F 20.0 °F - N/A% 30.46 in 10.0 mi SE 5.8 mph - N/A   Scattered Clouds
4:27 PM 26.6 °F 20.0 °F - N/A% 30.45 in 10.0 mi ESE 5.8 mph - N/A   Mostly Cloudy
4:56 PM 26.1 °F 18.4 °F - N/A% 30.49 in 10.0 mi SE 6.9 mph - N/A   Scattered Clouds
5:32 PM 26.6 °F 18.2 °F - N/A% 30.44 in 10.0 mi SSE 8.1 mph - N/A   Mostly Cloudy
5:56 PM 26.1 °F 18.4 °F - N/A% 30.48 in 10.0 mi SSE 6.9 mph - N/A   Mostly Cloudy
6:05 PM 26.6 °F 18.2 °F - N/A% 30.43 in 10.0 mi SE 8.1 mph - N/A   Scattered Clouds
6:56 PM 25.2 °F 17.3 °F - N/A% 30.46 in 10.0 mi SE 6.9 mph - N/A   Mostly Cloudy
7:27 PM 24.8 °F 19.1 °F - N/A% 30.41 in 10.0 mi SE 4.6 mph - N/A   Scattered Clouds
7:56 PM 24.1 °F 17.0 °F - N/A% 30.44 in 10.0 mi SE 5.8 mph - N/A   Partly Cloudy
8:56 PM 25.2 °F 18.3 °F - N/A% 30.42 in 10.0 mi SE 5.8 mph - N/A   Scattered Clouds
9:07 PM 24.8 °F 16.9 °F - N/A% 30.37 in 10.0 mi SE 6.9 mph - N/A   Mostly Cloudy
9:34 PM 24.8 °F 16.9 °F - N/A% 30.36 in 10.0 mi SSE 6.9 mph - N/A   Scattered Clouds
9:56 PM 25.2 °F 19.5 °F - N/A% 30.38 in 10.0 mi SSE 4.6 mph - N/A   Clear
10:10 PM 24.8 °F 19.1 °F - N/A% 30.34 in 10.0 mi SSE 4.6 mph - N/A   Scattered Clouds
10:56 PM 25.2 °F 17.3 °F - N/A% 30.35 in 10.0 mi SSE 6.9 mph - N/A   Clear
11:19 PM 26.6 °F 21.2 °F - N/A% 30.32 in 10.0 mi South 4.6 mph - N/A   Scattered Clouds
11:28 PM 24.8 °F 19.1 °F - N/A% 30.31 in 10.0 mi SSE 4.6 mph - N/A   Mostly Cloudy
11:56 PM 25.2 °F 16.5 °F - N/A% 30.33 in 10.0 mi SSE 8.1 mph - N/A   Scattered Clouds